Time,TemperatureF,DewpointF,PressureIn,WindDirection,WindDirectionDegrees,WindSpeedMPH,WindSpeedGustMPH,Humidity,HourlyPrecipIn,Conditions,Clouds,dailyrainin,SoftwareType,DateUTC
2013-01-09 00:03:00,44.0,32.0,-100.00,WSW,237,5.0,-999.0,62,-99.99,,,-99.99,,2013-01-09 05:03:00,
2013-01-09 00:12:00,44.0,32.0,-100.00,WSW,237,5.0,-999.0,62,-99.99,,,-99.99,,2013-01-09 05:12:00,
2013-01-09 00:22:00,44.0,32.0,-100.00,WSW,237,5.0,-999.0,62,-99.99,,,-99.99,,2013-01-09 05:22:00,
2013-01-09 00:33:00,44.0,32.0,-100.00,WSW,238,4.0,-999.0,63,-99.99,,,-99.99,,2013-01-09 05:33:00,
2013-01-09 00:42:00,44.0,32.0,-100.00,WSW,238,4.0,-999.0,63,-99.99,,,-99.99,,2013-01-09 05:42:00,
2013-01-09 00:53:00,44.0,32.0,-100.00,WSW,241,4.0,-999.0,63,-99.99,,,-99.99,,2013-01-09 05:53:00,
2013-01-09 01:02:00,43.0,32.0,-100.00,WSW,253,6.0,-999.0,64,-99.99,,,-99.99,,2013-01-09 06:02:00,
2013-01-09 01:12:00,43.0,32.0,-100.00,WSW,253,6.0,-999.0,64,-99.99,,,-99.99,,2013-01-09 06:12:00,
2013-01-09 01:22:00,43.0,32.0,-100.00,WSW,237,6.0,-999.0,64,-99.99,,,-99.99,,2013-01-09 06:22:00,
2013-01-09 01:32:00,43.0,32.0,-100.00,SW,229,3.0,-999.0,64,-99.99,,,-99.99,,2013-01-09 06:32:00,
2013-01-09 01:42:00,43.0,32.0,-100.00,SW,229,3.0,-999.0,64,-99.99,,,-99.99,,2013-01-09 06:42:00,
2013-01-09 01:52:00,43.0,32.0,-100.00,SW,231,3.0,-999.0,65,-99.99,,,-99.99,,2013-01-09 06:52:00,
2013-01-09 02:02:00,43.0,32.0,-100.00,WSW,239,3.0,-999.0,65,-99.99,,,-99.99,,2013-01-09 07:02:00,
2013-01-09 02:12:00,43.0,32.0,-100.00,WSW,239,3.0,-999.0,65,-99.99,,,-99.99,,2013-01-09 07:12:00,
2013-01-09 02:22:00,43.0,32.0,-100.00,WSW,243,2.0,-999.0,66,-99.99,,,-99.99,,2013-01-09 07:22:00,
2013-01-09 02:32:00,43.0,32.0,-100.00,South,188,2.0,-999.0,65,-99.99,,,-99.99,,2013-01-09 07:32:00,
2013-01-09 02:42:00,43.0,32.0,-100.00,South,188,2.0,-999.0,65,-99.99,,,-99.99,,2013-01-09 07:42:00,
2013-01-09 02:52:00,42.0,32.0,-100.00,SSW,195,3.0,-999.0,67,-99.99,,,-99.99,,2013-01-09 07:52:00,
2013-01-09 03:02:00,41.0,32.0,-100.00,SSW,202,4.0,-999.0,69,-99.99,,,-99.99,,2013-01-09 08:02:00,
2013-01-09 03:12:00,41.0,32.0,-100.00,SSW,202,4.0,-999.0,69,-99.99,,,-99.99,,2013-01-09 08:12:00,
2013-01-09 03:22:00,40.0,32.0,-100.00,SSW,203,4.0,-999.0,71,-99.99,,,-99.99,,2013-01-09 08:22:00,
2013-01-09 03:32:00,40.0,32.0,-100.00,SSW,196,5.0,-999.0,73,-99.99,,,-99.99,,2013-01-09 08:32:00,
2013-01-09 03:42:00,40.0,32.0,-100.00,SSW,196,5.0,-999.0,73,-99.99,,,-99.99,,2013-01-09 08:42:00,
2013-01-09 03:53:00,39.0,32.0,-100.00,SSW,201,5.0,-999.0,74,-99.99,,,-99.99,,2013-01-09 08:53:00,
2013-01-09 04:02:00,39.0,32.0,-100.00,South,190,5.0,-999.0,74,-99.99,,,-99.99,,2013-01-09 09:02:00,
2013-01-09 04:12:00,39.0,32.0,-100.00,South,190,5.0,-999.0,74,-99.99,,,-99.99,,2013-01-09 09:12:00,
2013-01-09 04:22:00,40.0,32.0,-100.00,SSW,192,3.0,-999.0,74,-99.99,,,-99.99,,2013-01-09 09:22:00,
2013-01-09 04:32:00,40.0,32.0,-100.00,SSW,194,6.0,-999.0,73,-99.99,,,-99.99,,2013-01-09 09:32:00,
2013-01-09 04:42:00,40.0,32.0,-100.00,SSW,194,6.0,-999.0,73,-99.99,,,-99.99,,2013-01-09 09:42:00,
2013-01-09 04:53:00,39.0,32.0,-100.00,SSW,200,6.0,-999.0,73,-99.99,,,-99.99,,2013-01-09 09:53:00,
2013-01-09 05:02:00,39.0,32.0,-100.00,SSW,203,4.0,-999.0,74,-99.99,,,-99.99,,2013-01-09 10:02:00,
2013-01-09 05:12:00,39.0,32.0,-100.00,SSW,203,4.0,-999.0,74,-99.99,,,-99.99,,2013-01-09 10:12:00,
2013-01-09 05:22:00,40.0,32.0,-100.00,SSW,194,2.0,-999.0,73,-99.99,,,-99.99,,2013-01-09 10:22:00,
2013-01-09 05:32:00,41.0,32.0,-100.00,SW,222,1.0,-999.0,72,-99.99,,,-99.99,,2013-01-09 10:32:00,
2013-01-09 05:42:00,41.0,32.0,-100.00,SW,222,1.0,-999.0,72,-99.99,,,-99.99,,2013-01-09 10:42:00,
2013-01-09 05:52:00,41.0,32.0,-100.00,SSW,196,1.0,-999.0,71,-99.99,,,-99.99,,2013-01-09 10:52:00,
2013-01-09 06:02:00,41.0,32.0,-100.00,SSW,198,2.0,-999.0,72,-99.99,,,-99.99,,2013-01-09 11:02:00,
2013-01-09 06:12:00,41.0,32.0,-100.00,SSW,198,2.0,-999.0,72,-99.99,,,-99.99,,2013-01-09 11:12:00,
2013-01-09 06:22:00,40.0,32.0,-100.00,SSW,193,4.0,-999.0,74,-99.99,,,-99.99,,2013-01-09 11:22:00,
2013-01-09 06:33:00,40.0,32.0,-100.00,SSW,211,2.0,-999.0,74,-99.99,,,-99.99,,2013-01-09 11:33:00,
2013-01-09 06:42:00,40.0,32.0,-100.00,SSW,211,2.0,-999.0,74,-99.99,,,-99.99,,2013-01-09 11:42:00,
2013-01-09 06:53:00,40.0,32.0,-100.00,SW,233,1.0,-999.0,73,-99.99,,,-99.99,,2013-01-09 11:53:00,
2013-01-09 07:03:00,40.0,32.0,-100.00,West,268,1.0,-999.0,74,-99.99,,,-99.99,,2013-01-09 12:03:00,
2013-01-09 07:12:00,40.0,32.0,-100.00,West,268,1.0,-999.0,74,-99.99,,,-99.99,,2013-01-09 12:12:00,
2013-01-09 07:23:00,40.0,32.0,-100.00,WSW,238,1.0,-999.0,74,-99.99,,,-99.99,,2013-01-09 12:23:00,
2013-01-09 07:33:00,40.0,33.0,-100.00,South,176,2.0,-999.0,72,-99.99,,,-99.99,,2013-01-09 12:33:00,
2013-01-09 07:43:00,40.0,33.0,-100.00,South,176,2.0,-999.0,72,-99.99,,,-99.99,,2013-01-09 12:43:00,
2013-01-09 07:53:00,40.0,32.0,-100.00,SSW,196,5.0,-999.0,74,-99.99,,,-99.99,,2013-01-09 12:53:00,
2013-01-09 08:03:00,39.0,32.0,-100.00,SSW,198,5.0,-999.0,76,-99.99,,,-99.99,,2013-01-09 13:03:00,
2013-01-09 08:12:00,39.0,32.0,-100.00,SSW,198,5.0,-999.0,76,-99.99,,,-99.99,,2013-01-09 13:12:00,
2013-01-09 08:23:00,39.0,32.0,-100.00,SSW,207,5.0,-999.0,77,-99.99,,,-99.99,,2013-01-09 13:23:00,
2013-01-09 08:33:00,40.0,33.0,-100.00,SW,219,3.0,-999.0,75,-99.99,,,-99.99,,2013-01-09 13:33:00,
2013-01-09 08:43:00,40.0,33.0,-100.00,SW,219,3.0,-999.0,75,-99.99,,,-99.99,,2013-01-09 13:43:00,
2013-01-09 08:53:00,40.0,33.0,-100.00,SW,231,5.0,-999.0,73,-99.99,,,-99.99,,2013-01-09 13:53:00,
2013-01-09 09:03:00,41.0,33.0,-100.00,SSW,206,4.0,-999.0,72,-99.99,,,-99.99,,2013-01-09 14:03:00,
2013-01-09 09:12:00,41.0,33.0,-100.00,SSW,206,4.0,-999.0,72,-99.99,,,-99.99,,2013-01-09 14:12:00,
2013-01-09 09:23:00,41.0,33.0,-100.00,SSW,200,4.0,-999.0,72,-99.99,,,-99.99,,2013-01-09 14:23:00,
2013-01-09 09:33:00,41.0,33.0,-100.00,SSE,160,4.0,-999.0,72,-99.99,,,-99.99,,2013-01-09 14:33:00,
2013-01-09 09:43:00,41.0,33.0,-100.00,SSE,160,4.0,-999.0,72,-99.99,,,-99.99,,2013-01-09 14:43:00,
2013-01-09 09:53:00,41.0,33.0,-100.00,South,187,6.0,-999.0,73,-99.99,,,-99.99,,2013-01-09 14:53:00,
2013-01-09 10:03:00,41.0,33.0,-100.00,South,190,7.0,-999.0,73,-99.99,,,-99.99,,2013-01-09 15:03:00,
2013-01-09 10:12:00,41.0,33.0,-100.00,South,190,7.0,-999.0,73,-99.99,,,-99.99,,2013-01-09 15:12:00,
2013-01-09 10:23:00,41.0,33.0,-100.00,SSW,203,4.0,-999.0,73,-99.99,,,-99.99,,2013-01-09 15:23:00,
2013-01-09 10:33:00,41.0,33.0,-100.00,South,186,7.0,-999.0,73,-99.99,,,-99.99,,2013-01-09 15:33:00,
2013-01-09 10:42:00,41.0,33.0,-100.00,South,186,7.0,-999.0,73,-99.99,,,-99.99,,2013-01-09 15:42:00,
2013-01-09 10:53:00,41.0,34.0,-100.00,SSW,193,7.0,-999.0,73,-99.99,,,-99.99,,2013-01-09 15:53:00,
2013-01-09 11:03:00,42.0,34.0,-100.00,SSW,196,7.0,-999.0,72,-99.99,,,-99.99,,2013-01-09 16:03:00,
2013-01-09 11:12:00,42.0,34.0,-100.00,SSW,196,7.0,-999.0,72,-99.99,,,-99.99,,2013-01-09 16:12:00,
2013-01-09 11:23:00,43.0,34.0,-100.00,South,191,5.0,-999.0,71,-99.99,,,-99.99,,2013-01-09 16:23:00,
2013-01-09 11:33:00,43.0,34.0,-100.00,South,181,6.0,-999.0,70,-99.99,,,-99.99,,2013-01-09 16:33:00,
2013-01-09 11:43:00,43.0,34.0,-100.00,South,181,6.0,-999.0,70,-99.99,,,-99.99,,2013-01-09 16:43:00,
2013-01-09 11:53:00,44.0,35.0,-100.00,SSW,193,5.0,-999.0,70,-99.99,,,-99.99,,2013-01-09 16:53:00,
2013-01-09 12:03:00,44.0,35.0,-100.00,South,183,5.0,-999.0,70,-99.99,,,-99.99,,2013-01-09 17:03:00,
2013-01-09 12:12:00,44.0,35.0,-100.00,South,183,5.0,-999.0,70,-99.99,,,-99.99,,2013-01-09 17:12:00,
2013-01-09 12:23:00,44.0,35.0,-100.00,South,190,4.0,-999.0,69,-99.99,,,-99.99,,2013-01-09 17:23:00,
2013-01-09 12:33:00,45.0,35.0,-100.00,South,191,5.0,-999.0,68,-99.99,,,-99.99,,2013-01-09 17:33:00,
2013-01-09 12:43:00,45.0,35.0,-100.00,South,191,5.0,-999.0,68,-99.99,,,-99.99,,2013-01-09 17:43:00,
2013-01-09 12:53:00,45.0,35.0,-100.00,SSW,195,5.0,-999.0,68,-99.99,,,-99.99,,2013-01-09 17:53:00,
2013-01-09 13:03:00,46.0,36.0,-100.00,SSW,206,3.0,-999.0,67,-99.99,,,-99.99,,2013-01-09 18:03:00,
2013-01-09 13:12:00,46.0,36.0,-100.00,SSW,206,3.0,-999.0,67,-99.99,,,-99.99,,2013-01-09 18:12:00,
2013-01-09 13:24:00,46.0,36.0,-100.00,SSW,202,3.0,-999.0,66,-99.99,,,-99.99,,2013-01-09 18:24:00,
2013-01-09 13:33:00,47.0,36.0,-100.00,West,270,2.0,-999.0,65,-99.99,,,-99.99,,2013-01-09 18:33:00,
2013-01-09 13:43:00,47.0,36.0,-100.00,West,270,2.0,-999.0,65,-99.99,,,-99.99,,2013-01-09 18:43:00,
2013-01-09 13:53:00,47.0,36.0,-100.00,West,277,2.0,-999.0,65,-99.99,,,-99.99,,2013-01-09 18:53:00,
2013-01-09 14:03:00,48.0,36.0,-100.00,SW,228,2.0,-999.0,63,-99.99,,,-99.99,,2013-01-09 19:03:00,
2013-01-09 14:13:00,48.0,36.0,-100.00,SW,228,2.0,-999.0,63,-99.99,,,-99.99,,2013-01-09 19:13:00,
2013-01-09 14:23:00,48.0,36.0,-100.00,West,269,2.0,-999.0,63,-99.99,,,-99.99,,2013-01-09 19:23:00,
2013-01-09 14:33:00,48.0,36.0,-100.00,SSE,165,3.0,-999.0,63,-99.99,,,-99.99,,2013-01-09 19:33:00,
2013-01-09 14:43:00,48.0,36.0,-100.00,SSE,165,3.0,-999.0,63,-99.99,,,-99.99,,2013-01-09 19:43:00,
2013-01-09 14:53:00,49.0,37.0,-100.00,SSW,197,2.0,-999.0,62,-99.99,,,-99.99,,2013-01-09 19:53:00,
2013-01-09 15:03:00,48.0,37.0,-100.00,WNW,300,3.0,-999.0,65,-99.99,,,-99.99,,2013-01-09 20:03:00,
2013-01-09 15:12:00,48.0,37.0,-100.00,WNW,300,3.0,-999.0,65,-99.99,,,-99.99,,2013-01-09 20:12:00,
2013-01-09 15:23:00,48.0,37.0,-100.00,South,182,3.0,-999.0,65,-99.99,,,-99.99,,2013-01-09 20:23:00,
2013-01-09 15:33:00,48.0,38.0,-100.00,SSE,158,5.0,-999.0,67,-99.99,,,-99.99,,2013-01-09 20:33:00,
2013-01-09 15:43:00,48.0,38.0,-100.00,SSE,158,5.0,-999.0,67,-99.99,,,-99.99,,2013-01-09 20:43:00,
2013-01-09 15:53:00,48.0,38.0,-100.00,SSW,193,6.0,-999.0,67,-99.99,,,-99.99,,2013-01-09 20:53:00,
2013-01-09 16:03:00,48.0,38.0,-100.00,SSW,194,6.0,-999.0,66,-99.99,,,-99.99,,2013-01-09 21:03:00,
2013-01-09 16:13:00,48.0,38.0,-100.00,SSW,194,6.0,-999.0,66,-99.99,,,-99.99,,2013-01-09 21:13:00,
2013-01-09 16:23:00,48.0,38.0,-100.00,SSW,197,5.0,-999.0,67,-99.99,,,-99.99,,2013-01-09 21:23:00,
2013-01-09 16:33:00,49.0,38.0,-100.00,South,187,6.0,-999.0,66,-99.99,,,-99.99,,2013-01-09 21:33:00,
2013-01-09 16:43:00,49.0,38.0,-100.00,South,187,6.0,-999.0,66,-99.99,,,-99.99,,2013-01-09 21:43:00,
2013-01-09 16:53:00,49.0,38.0,-100.00,SSW,193,7.0,-999.0,67,-99.99,,,-99.99,,2013-01-09 21:53:00,
2013-01-09 17:03:00,49.0,39.0,-100.00,SSW,209,6.0,-999.0,67,-99.99,,,-99.99,,2013-01-09 22:03:00,
2013-01-09 17:12:00,49.0,39.0,-100.00,SSW,209,6.0,-999.0,67,-99.99,,,-99.99,,2013-01-09 22:12:00,
2013-01-09 17:23:00,50.0,39.0,-100.00,WSW,248,5.0,-999.0,67,-99.99,,,-99.99,,2013-01-09 22:23:00,
2013-01-09 17:33:00,49.0,39.0,-100.00,WSW,253,5.0,-999.0,68,-99.99,,,-99.99,,2013-01-09 22:33:00,
2013-01-09 17:43:00,49.0,39.0,-100.00,WSW,253,5.0,-999.0,68,-99.99,,,-99.99,,2013-01-09 22:43:00,
2013-01-09 17:53:00,50.0,40.0,-100.00,West,265,4.0,-999.0,68,-99.99,,,-99.99,,2013-01-09 22:53:00,
2013-01-09 18:03:00,50.0,40.0,-100.00,WSW,248,5.0,-999.0,69,-99.99,,,-99.99,,2013-01-09 23:03:00,
2013-01-09 18:13:00,50.0,40.0,-100.00,WSW,248,5.0,-999.0,69,-99.99,,,-99.99,,2013-01-09 23:13:00,
2013-01-09 18:22:00,50.0,40.0,-100.00,WSW,249,4.0,-999.0,68,-99.99,,,-99.99,,2013-01-09 23:22:00,
2013-01-09 18:33:00,50.0,41.0,-100.00,WSW,245,5.0,-999.0,68,-99.99,,,-99.99,,2013-01-09 23:33:00,
2013-01-09 18:43:00,50.0,41.0,-100.00,WSW,245,5.0,-999.0,68,-99.99,,,-99.99,,2013-01-09 23:43:00,
2013-01-09 18:53:00,50.0,41.0,-100.00,West,262,5.0,-999.0,69,-99.99,,,-99.99,,2013-01-09 23:53:00,
2013-01-09 19:03:00,50.0,41.0,-100.00,WNW,285,5.0,-999.0,70,-99.99,,,-99.99,,2013-01-10 00:03:00,
2013-01-09 19:12:00,50.0,41.0,-100.00,WNW,285,5.0,-999.0,70,-99.99,,,-99.99,,2013-01-10 00:12:00,
2013-01-09 19:22:00,50.0,41.0,-100.00,NW,311,5.0,-999.0,71,-99.99,,,-99.99,,2013-01-10 00:22:00,
2013-01-09 19:32:00,48.0,40.0,-100.00,NNW,328,8.0,-999.0,74,-99.99,,,-99.99,,2013-01-10 00:32:00,
2013-01-09 19:42:00,48.0,40.0,-100.00,NNW,328,8.0,-999.0,74,-99.99,,,-99.99,,2013-01-10 00:42:00,
2013-01-09 19:53:00,47.0,40.0,-100.00,NNW,329,9.0,-999.0,74,-99.99,,,-99.99,,2013-01-10 00:53:00,
2013-01-09 20:02:00,47.0,40.0,-100.00,NNW,328,8.0,-999.0,74,-99.99,,,-99.99,,2013-01-10 01:02:00,
2013-01-09 20:12:00,47.0,40.0,-100.00,NNW,328,8.0,-999.0,74,-99.99,,,-99.99,,2013-01-10 01:12:00,
2013-01-09 20:22:00,48.0,40.0,-100.00,NW,321,10.0,-999.0,71,-99.99,,,-99.99,,2013-01-10 01:22:00,
2013-01-09 20:33:00,49.0,40.0,-100.00,NW,323,10.0,-999.0,69,-99.99,,,-99.99,,2013-01-10 01:33:00,
2013-01-09 20:43:00,49.0,40.0,-100.00,NW,323,10.0,-999.0,69,-99.99,,,-99.99,,2013-01-10 01:43:00,
2013-01-09 20:53:00,49.0,40.0,-100.00,NW,320,7.0,-999.0,69,-99.99,,,-99.99,,2013-01-10 01:53:00,
2013-01-09 21:03:00,49.0,40.0,-100.00,NW,315,6.0,-999.0,69,-99.99,,,-99.99,,2013-01-10 02:03:00,
2013-01-09 21:12:00,49.0,40.0,-100.00,NW,315,6.0,-999.0,69,-99.99,,,-99.99,,2013-01-10 02:12:00,
2013-01-09 21:22:00,50.0,40.0,-100.00,NW,314,6.0,-999.0,68,-99.99,,,-99.99,,2013-01-10 02:22:00,
2013-01-09 21:32:00,50.0,39.0,-100.00,NW,322,9.0,-999.0,66,-99.99,,,-99.99,,2013-01-10 02:32:00,
2013-01-09 21:42:00,50.0,39.0,-100.00,NW,322,9.0,-999.0,66,-99.99,,,-99.99,,2013-01-10 02:42:00,
2013-01-09 21:53:00,50.0,39.0,-100.00,NW,322,9.0,-999.0,66,-99.99,,,-99.99,,2013-01-10 02:53:00,
2013-01-09 22:03:00,50.0,38.0,-100.00,NW,311,7.0,-999.0,62,-99.99,,,-99.99,,2013-01-10 03:03:00,
2013-01-09 22:12:00,50.0,38.0,-100.00,NW,311,7.0,-999.0,62,-99.99,,,-99.99,,2013-01-10 03:12:00,
2013-01-09 22:22:00,50.0,36.0,-100.00,NW,316,9.0,-999.0,58,-99.99,,,-99.99,,2013-01-10 03:22:00,
2013-01-09 22:33:00,51.0,36.0,-100.00,NW,315,11.0,-999.0,55,-99.99,,,-99.99,,2013-01-10 03:33:00,
2013-01-09 22:43:00,51.0,36.0,-100.00,NW,315,11.0,-999.0,55,-99.99,,,-99.99,,2013-01-10 03:43:00,
2013-01-09 22:53:00,52.0,35.0,-100.00,WNW,301,10.0,-999.0,52,-99.99,,,-99.99,,2013-01-10 03:53:00,
2013-01-09 23:02:00,52.0,33.0,-100.00,WNW,297,9.0,-999.0,48,-99.99,,,-99.99,,2013-01-10 04:02:00,
2013-01-09 23:12:00,52.0,33.0,-100.00,WNW,297,9.0,-999.0,48,-99.99,,,-99.99,,2013-01-10 04:12:00,
2013-01-09 23:22:00,52.0,32.0,-100.00,WNW,293,10.0,-999.0,45,-99.99,,,-99.99,,2013-01-10 04:22:00,
2013-01-09 23:32:00,52.0,30.0,-100.00,WNW,288,9.0,-999.0,43,-99.99,,,-99.99,,2013-01-10 04:32:00,
2013-01-09 23:42:00,52.0,30.0,-100.00,WNW,288,9.0,-999.0,43,-99.99,,,-99.99,,2013-01-10 04:42:00,
2013-01-09 23:52:00,52.0,30.0,-100.00,WNW,292,9.0,-999.0,42,-99.99,,,-99.99,,2013-01-10 04:52:00,